Change the Weather History Date:

Monday, June 24, 2013

  Actual Average Record
Temperature  
Mean Temperature 65 °F -  
Max Temperature 82 °F 66 °F 86 °F (2004)
Min Temperature 48 °F 44 °F 35 °F (1977)
Growing Degree Days 15 (Base 50)    
Moisture  
Dew Point 42 °F    
Average Humidity 47    
Maximum Humidity 79    
Minimum Humidity 15    
Precipitation  
Precipitation 0.00 in - - ()
Sea Level Pressure  
Sea Level Pressure 29.60 in    
Wind  
Wind Speed 2 mph (SSW)    
Max Wind Speed 7 mph    
Max Gust Speed -    
Visibility 10 miles    
Events      
Averages and records for this station are not official NWS values.
T = Trace of Precipitation, MM = Missing Value Source: NWS Daily Summary

Daily Weather History Graph

Daily Weather History Graph

Search for Another Location

Airport or City:

Trip Planner

Search our weather history database for the weather conditions in past years. The results will help you decide how hot, cold, wet, or windy it might be!

Date:

Astronomy

Jun. 24, 2013 Rise Set
Actual Time 3:50 AM AKDT 11:38 PM AKDT
Civil Twilight 2:16 AM AKDT 1:12 AM AKDT
Nautical Twilight Sun does not rise Sun does not rise
Astronomical Twilight Sun does not rise Sun does not rise
Moon 11:39 PM AKDT (6/24) 6:22 AM AKDT (6/24)
Length of Visible Light 22h 55m
Length of Day
19h 48m
Full, 97% of the Moon is Illuminated
Jun 24
Full
Jun 29
Last Quarter
Jul 7
New
Jul 15
First Quarter
Jul 22
Full

Hourly Weather History & Observations

Time (AKDT) Temp. Dew Point Humidity Pressure Visibility Wind Dir Wind Speed Gust Speed Precip Events Conditions
12:53 AM 51.1 °F 43.0 °F 74% 29.60 in 10.0 mi Calm Calm - N/A   Clear
1:53 AM 46.0 °F 39.9 °F 79% 29.61 in 10.0 mi Calm Calm - N/A   Clear
2:53 AM 51.1 °F 42.1 °F 71% 29.61 in 10.0 mi SSE 5.8 mph - N/A   Clear
3:53 AM 51.1 °F 42.1 °F 71% 29.62 in 10.0 mi SSE 6.9 mph - N/A   Clear
4:53 AM 50.0 °F 42.1 °F 74% 29.63 in 10.0 mi SSE 4.6 mph - N/A   Clear
5:53 AM 48.9 °F 42.1 °F 77% 29.64 in 10.0 mi SSE 3.5 mph - N/A   Partly Cloudy
6:00 AM 50.0 °F 42.1 °F 74% 29.65 in 10.0 mi Calm Calm - N/A   Overcast
6:53 AM 52.0 °F 42.1 °F 69% 29.64 in 10.0 mi Calm Calm - N/A   Overcast
7:53 AM 53.1 °F 43.0 °F 69% 29.65 in 10.0 mi Calm Calm - N/A   Overcast
8:53 AM 55.0 °F 43.0 °F 64% 29.65 in 10.0 mi SSE 3.5 mph - N/A   Mostly Cloudy
9:53 AM 57.9 °F 44.1 °F 60% 29.65 in 10.0 mi South 3.5 mph - N/A   Mostly Cloudy
10:53 AM 61.0 °F 45.0 °F 56% 29.66 in 10.0 mi Variable 4.6 mph - N/A   Overcast
11:53 AM 64.9 °F 46.0 °F 50% 29.65 in 10.0 mi Calm Calm - N/A   Mostly Cloudy
12:53 PM 71.1 °F 42.1 °F 35% 29.63 in 10.0 mi Calm Calm - N/A   Mostly Cloudy
1:53 PM 73.9 °F 42.1 °F 32% 29.62 in 10.0 mi Calm Calm - N/A   Scattered Clouds
2:53 PM 77.0 °F 41.0 °F 28% 29.60 in 10.0 mi NNW 5.8 mph - N/A   Scattered Clouds
3:53 PM 77.0 °F 41.0 °F 28% 29.59 in 10.0 mi Calm Calm - N/A   Scattered Clouds
4:53 PM 80.1 °F 39.0 °F 23% 29.57 in 10.0 mi West 3.5 mph - N/A   Scattered Clouds
5:53 PM 80.1 °F 39.9 °F 24% 29.56 in 10.0 mi South 4.6 mph - N/A   Scattered Clouds
6:53 PM 81.0 °F 39.0 °F 22% 29.55 in 10.0 mi Calm Calm - N/A   Partly Cloudy
7:53 PM 80.1 °F 39.0 °F 23% 29.54 in 10.0 mi SW 3.5 mph - N/A   Partly Cloudy
8:53 PM 81.0 °F 42.1 °F 25% 29.54 in 10.0 mi Calm Calm - N/A   Partly Cloudy
9:25 PM 79.0 °F 39.0 °F 24% 29.56 in 10.0 mi WSW 3.5 mph - N/A   Partly Cloudy
9:53 PM 78.1 °F 39.0 °F 25% 29.54 in 10.0 mi West 3.5 mph - N/A   Clear
10:53 PM 66.9 °F 45.0 °F 45% 29.56 in 10.0 mi NW 3.5 mph - N/A   Clear
11:53 PM 61.0 °F 45.0 °F 56% 29.57 in 10.0 mi NW 5.8 mph - N/A   Clear